Regional Weather Roundup
Issued by NWS

Home | Current Version | Previous Version | Text Only | Print | Product List | Glossary Off
Versions: 1 2 3 4 5 6 7 8 9 10 11 12 13 14 15 16 17 18 19 20 21 22 23 24 25 26 27 28 29 30 31 32 33 34 35 36 37 38 39 40 41 42 43 44 45 46 47 48 49 50

000
ASUS43 KDMX 301703
RWRIA

WEATHER ROUNDUP FOR IOWA
NATIONAL WEATHER SERVICE DES MOINES IA
1200 PM CDT SAT JUL 30 2016

NOTE: "FAIR" INDICATES FEW OR NO CLOUDS BELOW 12,000 FEET WITH NO
SIGNIFICANT WEATHER AND/OR OBSTRUCTIONS TO VISIBILITY.

* - THESE STATIONS ARE NOT NWS STATIONS...THUS NOT UNDER NWS
QUALITY CONTROL.  THEY ALSO DO NOT REPORT WEATHER SUCH
AS PRECIPITATION OR FOG.

IAZ001>003-012>014-020>022-031>034-043>046-301800-
   NORTHWEST IOWA

CITY           SKY/WX    TMP DP  RH WIND       PRES   REMARKS
CARROLL *      PTSUNNY   73  64  73 CALM      30.04S
CHEROKEE *     MOSUNNY   76  62  59 CALM      30.04S
DENISON *      PTSUNNY   75  64  69 E3        30.02S
LE MARS *      MOSUNNY   77  61  57 S8        30.03S
SHELDON *      MOSUNNY   75  61  60 CALM      30.03S
SIOUX CITY     SUNNY     79  61  53 E8        30.01F HX  80
SPENCER        MOSUNNY   76  58  53 NW3       30.04F
STORM LAKE *   MOSUNNY   73  63  68 CALM      30.05S
$$

IAZ055>058-069>071-079>083-090>094-301800-
   SOUTHWEST IOWA

CITY           SKY/WX    TMP DP  RH WIND       PRES   REMARKS
ATLANTIC *     CLOUDY    75  63  64 CALM      30.05S
CLARINDA *       N/A     77  64  65 MISG      30.06S
COUNCIL BLFS * CLOUDY    72  64  78 E7        30.04F
CRESTON *      MOSUNNY   73  64  73 CALM      30.06S
HARLAN  *      MOSUNNY   73  66  78 S3        30.07F
LAMONI         CLOUDY    74  65  73 N7        30.05S
RED OAK *      CLOUDY    73  66  78 NE7       30.04F
SHENANDOAH *   CLOUDY    75  68  78 NE6       30.04S
$$

IAZ047>049-059>061-072>074-084-301800-
   CENTRAL IOWA

CITY           SKY/WX    TMP DP  RH WIND       PRES   REMARKS
AMES           CLOUDY    74  68  81 CALM      30.03F
ANKENY *         N/A    N/A N/A N/A MISG        N/A
BOONE *        SUNNY     73  64  73 NE5       30.03F
CHARITON *       N/A    N/A N/A N/A MISG        N/A
DES MOINES     CLOUDY    76  64  66 N5        30.03S
GRINNELL*      CLOUDY    73  66  79 N5        30.04S
KNOXVILLE *    CLOUDY    73  66  78 VRB5      30.03R
MARSHALLTOWN   CLOUDY    73  67  81 NW3       30.03S
NEWTON *       CLOUDY    73  68  83 VRB6      30.03S
PELLA *        PTSUNNY   74  67  78 N5        30.04S
PERRY *        PTSUNNY   76  66  71 CALM      30.04S
$$

IAZ004>006-015-016-023>025-035-036-301800-
   NORTH CENTRAL IOWA

CITY           SKY/WX    TMP DP  RH WIND       PRES   REMARKS
ALGONA *       CLOUDY    75  63  64 VRB3      30.05S
ESTHERVILLE    MOSUNNY   75  61  61 CALM      30.04F
FORT DODGE *   CLOUDY    72  64  78 CALM      30.05S
MASON CITY     MOSUNNY   74  65  73 E5        30.06S
FOREST CITY *  PTSUNNY   73  63  68 CALM      30.04F
IOWA FALLS *   CLOUDY    75  66  73 CALM      30.05F
$$

IAZ007>011-017>019-026>030-037>042-050>054-066-301800-
   NORTHEAST IOWA

CITY           SKY/WX    TMP DP  RH WIND       PRES   REMARKS
CEDAR RAPIDS   CLOUDY    76  67  73 NE6       30.01S
CHARLES CITY * PTSUNNY   75  66  73 E3        30.05S
CLINTON *      PTSUNNY   75  68  78 NE7       30.01S
DECORAH *      PTSUNNY   73  66  78 E5        30.04R
DUBUQUE        PTSUNNY   76  68  76 NE6       30.03R
MONTICELLO *   PTSUNNY   75  68  78 VRB5      30.01S
OELWEIN *      CLOUDY    73  66  78 CALM      30.04S
WATERLOO       PTSUNNY   77  65  66 NW5       30.02S
$$

IAZ064-065-067-068-078-301800-
   EAST CENTRAL IOWA

CITY           SKY/WX    TMP DP  RH WIND       PRES   REMARKS
DAVENPORT      CLOUDY    74  67  78 NE3       30.01R
IOWA CITY      CLOUDY    75  67  76 NW5       30.02S
MT. PLEASANT * CLOUDY    79  69  71 N3        30.01R HX  81
MUSCATINE *    CLOUDY    75  68  78 N6        30.00S
QUAD CITIES    PTSUNNY   79  68  69 E7        29.99S HX  81
$$

IAZ062-063-075>077-085>089-095>099-301800-
   SOUTHEAST IOWA

CITY           SKY/WX    TMP DP  RH WIND       PRES   REMARKS
BURLINGTON     PTSUNNY   77  68  73 VRB3      29.99S
FAIRFIELD *    CLOUDY    75  66  73 NW5       30.01S
KEOKUK *       MOSUNNY   77  66  69 VRB3      30.00S
OSKALOOSA *    CLOUDY    73  67  82 N6        30.03S
CENTERVILLE *    N/A     75  66  73 CALM      30.05S
OTTUMWA        CLOUDY    76  66  71 NW7       30.02S
WASHINGTON *   MOSUNNY   77  68  73 NE6       30.02S
$$

ABBREVIATIONS USED IN REMARKS
   TC - TEMPERATURES IN CELSIUS
  WCI - WIND CHILL INDEX
   HX - HEAT INDEX
  VSB - VISIBILITY
$$





USA.gov is the U.S. government's official web portal to all federal, state and local government web resources and services.